Regional Weather Roundup
Issued by NWS

Home | Current Version | Previous Version | Graphics & Text | Print | Product List | Glossary On
Versions: 1 2 3 4 5 6 7 8 9 10 11 12 13 14 15 16 17 18 19 20 21 22 23 24 25 26 27 28 29 30 31 32 33 34 35 36 37 38 39 40 41 42 43 44 45 46 47 48 49 50
000
ASUS45 KBOU 192007
RWRCO

WEATHER ROUNDUP FOR COLORADO
NATIONAL WEATHER SERVICE DENVER/BOULDER CO
200 PM MDT FRI SEP 19 2014

NOTE: "FAIR" INDICATES FEW OR NO CLOUDS BELOW 12000 FEET WITH NO
SIGNIFICANT WEATHER AND/OR OBSTRUCTIONS TO VISIBILITY.

COZ001>005-013-030-031-192100-
...NORTHWEST COLORADO...

CITY           SKY/WX    TMP DP  RH WIND       PRES   REMARKS
CRAIG          SUNNY     78  41  26 W6        30.10F
HAYDEN         MOSUNNY   79  37  22 NW10      30.11F
MEEKER         SUNNY     80  43  26 SW9       30.12F
MOUNT WERNER   NOT AVBL
STEAMBOAT SPGS MOSUNNY   78  39  25 W6G20     30.14F
WALDEN         PTSUNNY   70  34  26 SW8G16    30.22F
$$

COZ006>008-011-192100-
...WEST CENTRAL VALLEYS...

CITY           SKY/WX    TMP DP  RH WIND       PRES   REMARKS
GRAND JUNCTION SUNNY     86  41  20 VRB6      30.00F
MONTROSE       MOSUNNY   84  43  23 NW6       30.08F
EAGLE          MOSUNNY   81  39  22 W5        30.12F
RIFLE          SUNNY     83  41  22 VRB5      30.04F
DELTA          MOSUNNY   87  42  20 SW5       30.02F
NUCLA          MOSUNNY   81  43  26 NW9       30.13F
$$

COZ017>023-064>068-192100-
...SOUTHWEST COLORADO...

CITY           SKY/WX    TMP DP  RH WIND       PRES   REMARKS
DURANGO        SUNNY     78  43  28 W6        30.12F
CORTEZ         SUNNY     82  46  28 NW7       30.08F
PAGOSA SPRINGS SUNNY     78  34  20 SW12      30.17F
TELLURIDE      NOT AVBL
WOLF CREEK PAS MOSUNNY   55  30  38 NE9       30.50F
$$

COZ009-010-012-014-032>034-037-058>063-192100-
...CENTRAL COLORADO...

CITY           SKY/WX    TMP DP  RH WIND       PRES   REMARKS
ASPEN          SUNNY     78  36  21 N8        30.19F
BUENA VISTA    MOSUNNY   79  23  12 SE7       30.17F
COPPER MTN     NOT AVBL
BERTHOUD PASS  FAIR      52  50  93 W16       30.57F
COTTONWOOD PAS MOSUNNY   75  12   9 S10       30.33F
GUNNISON       SUNNY     75  37  25 W10       30.22F
KREMMLING      SUNNY     81  28  15 SW9G20    30.16F
LEADVILLE      SUNNY     69  25  19 N9        30.33F
MONARCH PASS   CLOUDY    55  32  41 NE5       30.61F
SALIDA         MOSUNNY   83  24  11 SW7       30.21F
SUNLIGHT       MOSUNNY   61  39  44 CALM      30.46F
WILKERSON PASS NOT AVBL
$$

COZ069>075-192100-
...SAN LUIS VALLEY/SANGRE DE CRISTO MOUNTAINS...

CITY           SKY/WX    TMP DP  RH WIND       PRES   REMARKS
ALAMOSA        SUNNY     77  38  24 N9        30.16F
LA VETA PASS   SUNNY     68  32  26 N9G17     30.35F
SAGUACHE       NOT AVBL
$$

COZ035-036-038>040-192100-
...NORTHERN COLORADO FRONT RANGE...

CITY           SKY/WX    TMP DP  RH WIND       PRES   REMARKS
DENVER INTL AP MOSUNNY   86  42  21 VRB3      30.00F
DMNS CITY PARK   N/A     87  40  19 S6        29.98F
AURORA         MOSUNNY   84  42  22 NE2       30.03F
FRONT RANGE AP MOSUNNY   84  43  23 N3        30.01F
ERIE MUNI ARPT MOSUNNY   86  40  19 S7        29.97F
BOULDER MUN AP MOSUNNY   82  43  24 SE8       29.98F
CENTENNIAL     MOSUNNY   83  38  20 VRB3      30.04F
BROOMFIELD     NOT AVBL
FORT COLLINS   SUNNY     84  48  28 SE6       29.97F
LONGMONT       SUNNY     88  43  20 S12       29.98F
$$

COZ041-046-047-076>085-087-088-192100-
...PIKES PEAK/PALMER DIVIDE AND SOUTHERN FOOTHILLS...

CITY           SKY/WX    TMP DP  RH WIND       PRES   REMARKS
COLO. SPRINGS  MOSUNNY   86  36  16 NE14G29   30.06F
A. F. ACADEMY  SUNNY     83  37  19 NE8G22    30.08F
ELLICOTT       NOT AVBL
FALCON         SUNNY     82  36  19 NE13      30.13F
FORT CARSON    MOSUNNY   86  43  22 N14G22    30.02F
LIMON          SUNNY     87  38  17 N7G16     29.99F
MONUMENT HILL  SUNNY     77  36  22 NE8       30.13F
TRINIDAD       SUNNY     85  35  16 N5        30.01F
$$

COZ042>045-048>051-090-091-192100-
...NORTHEAST COLORADO...

CITY           SKY/WX    TMP DP  RH WIND       PRES   REMARKS
GREELEY ARPT   SUNNY     88  46  23 SW8       29.95F
AKRON          SUNNY     88  43  20 N6        29.94F
BURLINGTON     SUNNY     87  53  31 S17G26    29.93F
WRAY           SUNNY     94  46  19 SW8       29.87F
STERLING       SUNNY     90  54  29 NE7       29.89F
HOLYOKE        SUNNY     95  50  21 SW5       29.88F
FORT MORGAN    SUNNY     88  46  23 E7        29.94F
$$

COZ086-089-092>099-192100-
...SOUTHEAST COLORADO...

CITY           SKY/WX    TMP DP  RH WIND       PRES   REMARKS
PUEBLO         SUNNY     87  44  22 E8        29.94F
LA JUNTA       SUNNY     88  46  23 VRB5      29.91F
LAMAR          MOSUNNY   89  56  32 S18G28    29.87F
SPRINGFIELD      N/A     83  58  42 S17G29    29.96F
$$


USA.gov is the U.S. government's official web portal to all federal, state and local government web resources and services.